Weather History for KSFY - November, 2013

Change the Weather History Date:

Saturday, November 16, 2013

  Actual Average (KCWI) Record (KCWI)
Temperature  
Mean Temperature 46 °F -  
Max Temperature 58 °F 48 °F 71 °F (1952)
Min Temperature 35 °F 30 °F 5 °F (1959)
Degree Days  
Heating Degree Days 18    
Moisture  
Dew Point 48 °F    
Average Humidity 88    
Maximum Humidity 95    
Minimum Humidity 84    
Precipitation  
Precipitation 0.04 in - - ()
Sea Level Pressure  
Sea Level Pressure 29.65 in    
Wind  
Wind Speed 12 mph (SSE)    
Max Wind Speed 28 mph    
Max Gust Speed 34 mph    
Visibility 8 miles    
Events Rain , Thunderstorm    
Averages and records for this station are not official NWS values.
T = Trace of Precipitation, MM = Missing Value Source: NWS Daily Summary

Daily Weather History Graph

Daily Weather History Graph

Search for Another Location

Airport or City:

Trip Planner

Search our weather history database for the weather conditions in past years. The results will help you decide how hot, cold, wet, or windy it might be!

Date:

Astronomy

Nov. 16, 2013 Rise Set
Actual Time 6:51 AM CST 4:38 PM CST
Civil Twilight 6:21 AM CST 5:08 PM CST
Nautical Twilight 5:47 AM CST 5:42 PM CST
Astronomical Twilight 5:14 AM CST 6:15 PM CST
Moon 4:14 PM CST (11/16) 5:47 AM CST (11/16)
Length of Visible Light 10h 46m
Length of Day
9h 46m
Waxing Gibbous, 99% of the Moon is Illuminated
Nov 16
Waxing Gibbous
Nov 17
Full
Nov 25
Last Quarter
Dec 2
New
Dec 9
First Quarter

Hourly Weather History & Observations

Time (CST) Temp. Windchill Dew Point Humidity Pressure Visibility Wind Dir Wind Speed Gust Speed Precip Events Conditions
12:15 AM 36.9 °F 34.3 °F 32.9 °F 86% 29.86 in 10.0 mi SSE 3.5 mph - N/A   Clear
12:35 AM 36.9 °F 33.1 °F 32.5 °F 84% 29.86 in 10.0 mi SSE 4.6 mph - N/A   Clear
12:55 AM 36.5 °F 31.8 °F 32.5 °F 86% 29.86 in 10.0 mi SSE 5.8 mph - N/A   Clear
1:15 AM 36.0 °F 30.3 °F 33.3 °F 90% 29.86 in 10.0 mi SSE 6.9 mph - N/A   Clear
1:35 AM 36.9 °F 32.2 °F 34.0 °F 89% 29.85 in 10.0 mi SSE 5.8 mph - N/A   Clear
1:55 AM 37.8 °F 32.5 °F 34.7 °F 89% 29.85 in 10.0 mi SSE 6.9 mph - N/A   Clear
2:15 AM 37.4 °F 33.8 °F 34.7 °F 90% 29.85 in 10.0 mi SE 4.6 mph - N/A   Clear
2:35 AM 37.0 °F 31.6 °F 34.7 °F 91% 29.84 in 10.0 mi SE 6.9 mph - N/A   Clear
2:55 AM 35.8 °F 30.9 °F 33.8 °F 92% 29.83 in 10.0 mi SE 5.8 mph - N/A   Clear
3:15 AM 35.8 °F 29.4 °F 34.0 °F 93% 29.83 in 10.0 mi SE 8.1 mph - N/A   Clear
3:35 AM 39.2 °F 33.6 °F 37.2 °F 93% 29.84 in 10.0 mi SSE 8.1 mph - N/A   Mostly Cloudy
3:55 AM 41.0 °F 35.2 °F 38.3 °F 90% 29.83 in 10.0 mi SSE 9.2 mph - N/A   Overcast
4:15 AM 41.0 °F 37.1 °F 38.7 °F 91% 29.83 in 7.0 mi SSE 5.8 mph - N/A   Overcast
4:35 AM 41.2 °F 36.0 °F 39.2 °F 93% 29.82 in 4.0 mi SSE 8.1 mph - N/A   Overcast
4:55 AM 42.1 °F 36.6 °F 40.5 °F 94% 29.81 in 2.5 mi SSE 9.2 mph - N/A   Overcast
5:15 AM 42.8 °F 36.6 °F 41.4 °F 95% 29.79 in 2.5 mi SSE 11.5 mph - N/A   Overcast
5:35 AM 44.1 °F 37.4 °F 42.8 °F 95% 29.78 in 4.0 mi SE 13.8 mph - N/A   Overcast
5:55 AM 44.8 °F 37.7 °F 43.0 °F 93% 29.77 in 4.0 mi SSE 16.1 mph - N/A   Overcast
6:15 AM 45.5 °F 39.2 °F 43.7 °F 93% 29.77 in 5.0 mi SE 13.8 mph - N/A   Overcast
6:35 AM 46.0 °F 40.2 °F 43.9 °F 92% 29.77 in 5.0 mi SE 12.7 mph - N/A   Overcast
6:55 AM 46.4 °F 40.7 °F 44.1 °F 92% 29.76 in 5.0 mi SE 12.7 mph - N/A   Overcast
7:15 AM 46.4 °F 41.1 °F 44.2 °F 92% 29.76 in 3.0 mi SE 11.5 mph - N/A   Overcast
7:35 AM 46.8 °F - 44.6 °F 92% 29.75 in 3.0 mi SE 12.7 mph - N/A   Overcast
7:55 AM 47.3 °F - 44.8 °F 91% 29.73 in 4.0 mi SE 18.4 mph 21.9 mph N/A Rain Light Rain
8:15 AM 47.7 °F - 45.1 °F 91% 29.74 in 4.0 mi SSE 15.0 mph - N/A   Overcast
8:35 AM 48.2 °F - 45.5 °F 90% 29.73 in 5.0 mi SSE 15.0 mph - N/A   Overcast
8:55 AM 48.4 °F - 45.5 °F 90% 29.73 in 5.0 mi SSE 13.8 mph - N/A Rain Light Rain
9:15 AM 49.3 °F - 46.4 °F 90% 29.73 in 5.0 mi SSE 11.5 mph - N/A   Overcast
9:35 AM 49.6 °F - 46.6 °F 89% 29.71 in 5.0 mi SSE 13.8 mph - N/A   Overcast
9:55 AM 50.2 °F - 47.3 °F 90% 29.70 in 7.0 mi SSE 15.0 mph - N/A   Overcast
10:15 AM 51.3 °F - 48.0 °F 89% 29.70 in 7.0 mi SSE 16.1 mph - N/A   Overcast
10:35 AM 52.0 °F - 48.6 °F 88% 29.68 in 7.0 mi SSE 16.1 mph 19.6 mph N/A   Overcast
10:55 AM 53.1 °F - 49.3 °F 87% 29.67 in 7.0 mi SSE 15.0 mph 23.0 mph N/A   Overcast
11:15 AM 53.2 °F - 50.0 °F 89% 29.66 in 7.0 mi SSE 16.1 mph 25.3 mph N/A   Light Drizzle
11:35 AM 53.6 °F - 50.4 °F 89% 29.65 in 7.0 mi SSE 16.1 mph 23.0 mph N/A Rain Light Rain
11:55 AM 54.5 °F - 50.9 °F 88% 29.63 in 7.0 mi SSE 20.7 mph 26.5 mph N/A Thunderstorm Overcast
12:15 PM 54.7 °F - 51.1 °F 88% 29.61 in 7.0 mi SSE 17.3 mph 26.5 mph N/A Rain , Thunderstorm Rain
12:35 PM 54.7 °F - 52.0 °F 91% 29.59 in 5.0 mi SSE 20.7 mph 25.3 mph 0.03 in Rain Light Rain
12:55 PM 55.4 °F - 52.7 °F 91% 29.57 in 5.0 mi SSE 19.6 mph 25.3 mph 0.04 in Rain Light Rain
1:15 PM 56.3 °F - 53.2 °F 89% 29.57 in 7.0 mi SSE 18.4 mph 25.3 mph N/A   Overcast
1:35 PM 56.5 °F - 53.2 °F 89% 29.57 in 7.0 mi South 15.0 mph - N/A Rain Light Rain
1:55 PM 57.2 °F - 54.0 °F 89% 29.55 in 7.0 mi SSE 18.4 mph 23.0 mph N/A Rain , Thunderstorm Rain
2:15 PM 58.6 °F - 54.7 °F 87% 29.53 in 10.0 mi SSE 20.7 mph 25.3 mph N/A Thunderstorm Overcast
2:35 PM 58.1 °F - 54.0 °F 86% 29.51 in 10.0 mi SSE 21.9 mph 27.6 mph N/A Thunderstorm Overcast
2:55 PM 58.1 °F - 53.8 °F 86% 29.52 in 7.0 mi SSE 17.3 mph 26.5 mph N/A Rain , Thunderstorm Light Thunderstorms and Rain
3:15 PM 57.4 °F - 53.8 °F 88% 29.52 in 10.0 mi South 16.1 mph 20.7 mph N/A   Overcast
3:35 PM 57.2 °F - 53.8 °F 88% 29.51 in 7.0 mi South 16.1 mph - N/A   Overcast
3:55 PM 58.3 °F - 54.0 °F 86% 29.51 in 10.0 mi South 21.9 mph 25.3 mph N/A Thunderstorm Overcast
4:15 PM 58.1 °F - 53.6 °F 85% 29.51 in 10.0 mi South 20.7 mph 26.5 mph N/A Thunderstorm Overcast
4:35 PM 58.6 °F - 54.0 °F 84% 29.50 in 10.0 mi South 23.0 mph 28.8 mph N/A Rain Light Rain
4:55 PM 58.1 °F - 54.0 °F 86% 29.49 in 10.0 mi South 20.7 mph 31.1 mph N/A   Overcast
5:15 PM 58.5 °F - 54.1 °F 86% 29.49 in 10.0 mi South 26.5 mph 33.4 mph N/A   Overcast
5:35 PM 58.3 °F - 54.0 °F 86% 29.48 in 10.0 mi South 27.6 mph 34.5 mph N/A Thunderstorm Mostly Cloudy
5:55 PM 58.1 °F - 53.8 °F 86% 29.49 in 10.0 mi South 19.6 mph 32.2 mph N/A   Scattered Clouds
6:15 PM 58.1 °F - 53.8 °F 86% 29.50 in 10.0 mi South 19.6 mph 28.8 mph N/A   Mostly Cloudy
6:35 PM 58.5 °F - 53.8 °F 84% 29.50 in 10.0 mi South 19.6 mph 25.3 mph N/A   Overcast
6:55 PM 58.3 °F - 53.8 °F 85% 29.50 in 10.0 mi South 19.6 mph 26.5 mph N/A   Overcast
7:15 PM 57.9 °F - 53.6 °F 86% 29.50 in 10.0 mi South 18.4 mph 26.5 mph N/A   Overcast
7:35 PM 58.1 °F - 53.8 °F 86% 29.51 in 10.0 mi South 20.7 mph 27.6 mph N/A Thunderstorm Overcast
7:55 PM 58.1 °F - 53.6 °F 85% 29.51 in 10.0 mi South 20.7 mph 29.9 mph N/A   Overcast
8:15 PM 58.1 °F - 53.6 °F 85% 29.51 in 10.0 mi South 19.6 mph 28.8 mph N/A   Overcast
8:35 PM 58.1 °F - 53.6 °F 85% 29.51 in 10.0 mi South 19.6 mph - N/A   Overcast
8:55 PM 57.7 °F - 53.4 °F 85% 29.51 in 10.0 mi South 18.4 mph 23.0 mph N/A Thunderstorm Overcast
9:15 PM 57.9 °F - 53.4 °F 85% 29.51 in 10.0 mi South 20.7 mph 26.5 mph N/A   Overcast
9:35 PM 57.7 °F - 53.2 °F 85% 29.51 in 10.0 mi South 20.7 mph 26.5 mph N/A   Mostly Cloudy
9:55 PM 57.6 °F - 53.4 °F 86% 29.51 in 10.0 mi South 18.4 mph 24.2 mph N/A   Scattered Clouds
10:15 PM 57.2 °F - 53.1 °F 86% 29.50 in 10.0 mi South 15.0 mph 23.0 mph N/A   Scattered Clouds
10:35 PM 57.2 °F - 53.2 °F 87% 29.51 in 10.0 mi South 16.1 mph 19.6 mph N/A   Scattered Clouds
10:55 PM 57.4 °F - 53.4 °F 87% 29.50 in 10.0 mi South 15.0 mph 21.9 mph N/A   Scattered Clouds
11:15 PM 57.7 °F - 53.6 °F 86% 29.51 in 10.0 mi South 16.1 mph - N/A   Mostly Cloudy
11:35 PM 57.7 °F - 53.2 °F 85% 29.51 in 10.0 mi South 13.8 mph - N/A   Mostly Cloudy
11:55 PM 57.7 °F - 53.6 °F 86% 29.50 in 10.0 mi South 15.0 mph - N/A   Clear